| time (UTC) | temp C | wind direction | speed KPH | gust KPH | rain 1hr cm | rain 24hr cm | rain mn cm | humidity % | barometer mb |
| 20260901031543 | 14 | 219 | 0.0 | 0.0 | 0.00 | 0.00 | 0.03 | 94 | 1007.3 |
| 20260901030033 | 14 | 220 | 0.0 | 0.0 | 0.00 | 0.00 | 0.03 | 94 | 1007.3 |
| 20260901024532 | 14 | 220 | 0.0 | 0.0 | 0.00 | 0.00 | 0.03 | 93 | 1007.2 |
| 20260901023030 | 14 | 220 | 0.0 | 0.0 | 0.00 | 0.00 | 0.03 | 93 | 1007.1 |
| 20260901021544 | 14 | 220 | 0.0 | 0.0 | 0.00 | 0.00 | 0.03 | 93 | 1007.1 |
| 20260901020030 | 14 | 219 | 0.0 | 0.0 | 0.00 | 0.00 | 0.03 | 93 | 1007.0 |
| 20260901014528 | 14 | 220 | 0.0 | 0.0 | 0.00 | 0.00 | 0.03 | 93 | 1006.9 |
| 20260901013033 | 14 | 220 | 0.0 | 0.0 | 0.00 | 0.00 | 0.03 | 93 | 1006.9 |
| 20260901011526 | 14 | 219 | 0.0 | 0.0 | 0.00 | 0.00 | 0.03 | 93 | 1006.9 |
| 20260901010041 | 14 | 219 | 0.0 | 0.0 | 0.00 | 0.00 | 0.03 | 93 | 1006.8 |
| 20260901004525 | 14 | 220 | 0.0 | 0.0 | 0.00 | 0.00 | 0.03 | 93 | 1006.8 |
| 20260901003028 | 14 | 220 | 0.0 | 0.0 | 0.00 | 0.00 | 0.03 | 93 | 1006.8 |
| 20260901001523 | 14 | 220 | 0.0 | 0.0 | 0.00 | 0.00 | 0.03 | 92 | 1006.7 |
| 20260901000021 | 15 | 220 | 0.0 | 0.0 | 0.00 | 0.00 | 0.03 | 92 | 1006.6 |
| 20260831234521 | 15 | 229 | 0.0 | 0.0 | 0.00 | 0.00 | 0.03 | 92 | 1006.6 |
| 20260831233019 | 15 | 229 | 0.0 | 0.0 | 0.00 | 0.00 | 0.03 | 92 | 1006.6 |
| 20260831231519 | 15 | 221 | 0.0 | 0.0 | 0.00 | 0.00 | 0.00 | 92 | 1006.5 |
| 20260831230017 | 15 | 221 | 0.0 | 0.0 | 0.00 | 0.00 | 0.00 | 92 | 1006.7 |
| 20260831224515 | 15 | 221 | 0.0 | 0.0 | 0.00 | 0.00 | 0.00 | 92 | 1006.5 |
| 20260831223021 | 15 | 221 | 0.0 | 0.0 | 0.00 | 0.00 | 0.00 | 92 | 1006.6 |
| 20260831221515 | 15 | 221 | 1.6 | 0.0 | 0.00 | 0.00 | 0.00 | 92 | 1006.7 |
| 20260831220010 | 15 | 232 | 0.0 | 0.0 | 0.00 | 0.00 | 0.00 | 92 | 1006.7 |
| 20260831214509 | 15 | 232 | 0.0 | 0.0 | 0.00 | 0.00 | 0.13 | 92 | 1006.6 |
| 20260831213008 | 15 | 232 | 0.0 | 0.0 | 0.00 | 0.00 | 0.13 | 92 | 1006.5 |
| 20260831211510 | 15 | 234 | 0.0 | 0.0 | 0.00 | 0.00 | 0.13 | 92 | 1006.5 |
| 20260831210013 | 15 | 234 | 0.0 | 0.0 | 0.00 | 0.00 | 0.13 | 92 | 1006.4 |
| 20260831204509 | 15 | 234 | 0.0 | 0.0 | 0.00 | 0.00 | 0.13 | 92 | 1006.4 |
| 20260831203010 | 15 | 233 | 0.0 | 0.0 | 0.00 | 0.00 | 0.13 | 92 | 1006.3 |
| 20260831201506 | 15 | 233 | 0.0 | 0.0 | 0.00 | 0.00 | 0.13 | 91 | 1006.3 |
| 20260831200016 | 15 | 233 | 0.0 | 0.0 | 0.00 | 0.00 | 0.13 | 91 | 1006.3 |
| 20260831194507 | 15 | 234 | 0.0 | 0.0 | 0.00 | 0.00 | 0.13 | 91 | 1006.3 |
| 20260831193009 | 15 | 234 | 0.0 | 0.0 | 0.00 | 0.00 | 0.13 | 91 | 1006.4 |
| 20260831191506 | 15 | 234 | 0.0 | 0.0 | 0.00 | 0.00 | 0.13 | 90 | 1006.3 |
| 20260831190004 | 15 | 234 | 0.0 | 0.0 | 0.00 | 0.00 | 0.10 | 90 | 1006.0 |
| 20260831184505 | 15 | 233 | 0.0 | 0.0 | 0.00 | 0.00 | 0.10 | 89 | 1005.6 |
| 20260831183003 | 15 | 233 | 0.0 | 0.0 | 0.00 | 0.00 | 0.10 | 89 | 1005.6 |
| 20260831181504 | 16 | 233 | 0.0 | 0.0 | 0.00 | 0.00 | 0.10 | 88 | 1005.6 |
| 20260831180002 | 16 | 234 | 0.0 | 0.0 | 0.00 | 0.00 | 0.10 | 88 | 1005.6 |
| 20260831174502 | 16 | 234 | 0.0 | 0.0 | 0.00 | 0.00 | 0.10 | 88 | 1005.5 |
| 20260831173002 | 16 | 240 | 0.0 | 0.0 | 0.00 | 0.00 | 0.10 | 88 | 1005.4 |
| 20260831171502 | 16 | 240 | 0.0 | 0.0 | 0.00 | 0.00 | 0.10 | 88 | 1005.3 |
| 20260831170001 | 17 | 240 | 0.0 | 0.0 | 0.00 | 0.00 | 0.10 | 88 | 1005.4 |
| 20260831164501 | 17 | 240 | 0.0 | 0.0 | 0.00 | 0.00 | 0.10 | 88 | 1005.4 |
| 20260831163100 | 17 | 240 | 0.0 | 0.0 | 0.00 | 0.00 | 0.10 | 88 | 1005.5 |
| 20260831161559 | 17 | 240 | 0.0 | 0.0 | 0.00 | 0.00 | 0.10 | 88 | 1005.5 |
| 20260831160059 | 17 | 240 | 0.0 | 0.0 | 0.00 | 0.00 | 0.10 | 88 | 1005.4 |
| 20260831154559 | 17 | 240 | 0.0 | 0.0 | 0.00 | 0.00 | 0.10 | 86 | 1005.1 |
| 20260831153115 | 17 | 243 | 0.0 | 0.0 | 0.00 | 0.00 | 0.10 | 86 | 1005.1 |
| 20260831151602 | 17 | 230 | 0.0 | 0.0 | 0.00 | 0.00 | 0.08 | 84 | 1005.5 |
| 20260831150057 | 18 | 225 | 1.6 | 0.0 | 0.00 | 0.00 | 0.08 | 82 | 1005.4 |
| 20260831144640 | 19 | 223 | 1.6 | 0.0 | 0.00 | 0.00 | 0.08 | 80 | 1005.5 |
| 20260831143100 | 20 | 224 | 1.6 | 0.0 | 0.00 | 0.00 | 0.08 | 79 | 1005.5 |
| 20260831141555 | 20 | 211 | 3.2 | 0.0 | 0.00 | 0.00 | 0.08 | 80 | 1005.5 |
| 20260831140055 | 20 | 233 | 3.2 | 0.0 | 0.00 | 0.00 | 0.08 | 81 | 1005.4 |
| 20260831134555 | 20 | 223 | 1.6 | 0.0 | 0.00 | 0.00 | 0.08 | 82 | 1005.3 |
| 20260831133100 | 20 | 233 | 3.2 | 0.0 | 0.00 | 0.00 | 0.08 | 81 | 1005.2 |
| 20260831131601 | 20 | 234 | 3.2 | 0.0 | 0.00 | 0.00 | 0.08 | 82 | 1005.2 |
| 20260831130053 | 20 | 232 | 4.8 | 0.0 | 0.00 | 0.00 | 0.08 | 82 | 1005.2 |
| 20260831124558 | 20 | 202 | 6.4 | 0.0 | 0.00 | 0.00 | 0.08 | 86 | 1005.2 |
| 20260831123054 | 20 | 250 | 1.6 | 0.0 | 0.00 | 0.00 | 0.08 | 91 | 1005.1 |
| 20260831121548 | 19 | 172 | 0.0 | 0.0 | 0.00 | 0.00 | 0.08 | 92 | 1005.2 |
| 20260831120045 | 18 | 118 | 0.0 | 0.0 | 0.00 | 0.00 | 0.05 | 92 | 1005.2 |
| 20260831114552 | 18 | 179 | 0.0 | 0.0 | 0.00 | 0.00 | 0.05 | 92 | 1005.5 |
| 20260831113043 | 18 | 179 | 0.0 | 0.0 | 0.00 | 0.00 | 0.05 | 92 | 1005.6 |
| 20260831111551 | 18 | 128 | 0.0 | 0.0 | 0.00 | 0.00 | 0.05 | 93 | 1005.5 |
| 20260831110042 | 17 | 162 | 0.0 | 0.0 | 0.00 | 0.00 | 0.05 | 92 | 1005.4 |
| 20260831104545 | 16 | 161 | 0.0 | 0.0 | 0.00 | 0.00 | 0.05 | 92 | 1005.7 |
| 20260831103040 | 17 | 162 | 0.0 | 0.0 | 0.00 | 0.00 | 0.05 | 91 | 1005.6 |
| 20260831101540 | 18 | 157 | 0.0 | 0.0 | 0.00 | 0.00 | 0.05 | 92 | 1005.6 |
| 20260831100057 | 18 | 153 | 0.0 | 0.0 | 0.00 | 0.00 | 0.05 | 92 | 1005.8 |
| 20260831094538 | 18 | 227 | 0.0 | 0.0 | 0.00 | 0.00 | 0.05 | 93 | 1005.8 |
| 20260831093039 | 18 | 183 | 0.0 | 0.0 | 0.00 | 0.00 | 0.05 | 94 | 1005.9 |
| 20260831091531 | 17 | 188 | 0.0 | 0.0 | 0.00 | 0.00 | 0.05 | 94 | 1006.1 |
| 20260831090029 | 17 | 137 | 0.0 | 0.0 | 0.00 | 0.00 | 0.05 | 94 | 1006.2 |
| 20260831084527 | 17 | 184 | 0.0 | 0.0 | 0.00 | 0.00 | 0.05 | 94 | 1006.5 |
| 20260831083025 | 16 | 184 | 0.0 | 0.0 | 0.00 | 0.00 | 0.05 | 94 | 1006.4 |
| 20260831081523 | 16 | 180 | 0.0 | 0.0 | 0.00 | 0.00 | 0.05 | 94 | 1006.5 |
| 20260831080026 | 16 | 173 | 0.0 | 0.0 | 0.00 | 0.00 | 0.05 | 94 | 1006.5 |
| 20260831074521 | 16 | 215 | 0.0 | 0.0 | 0.00 | 0.00 | 0.05 | 94 | 1006.6 |
| 20260831073033 | 16 | 216 | 0.0 | 0.0 | 0.00 | 0.00 | 0.05 | 94 | 1006.7 |
| 20260831071520 | 16 | 229 | 0.0 | 0.0 | 0.00 | 0.00 | 0.05 | 94 | 1006.8 |
| 20260831070018 | 16 | 229 | 0.0 | 0.0 | 0.00 | 0.00 | 0.05 | 94 | 1006.8 |
| 20260831064523 | 15 | 229 | 0.0 | 0.0 | 0.00 | 0.00 | 0.05 | 94 | 1006.6 |
| 20260831063023 | 15 | 229 | 0.0 | 0.0 | 0.00 | 0.00 | 0.05 | 94 | 1006.5 |
| 20260831061515 | 15 | 229 | 0.0 | 0.0 | 0.00 | 0.00 | 0.05 | 94 | 1006.7 |
| 20260831060015 | 15 | 229 | 0.0 | 0.0 | 0.00 | 0.00 | 0.05 | 94 | 1006.8 |
| 20260831054514 | 15 | 229 | 0.0 | 0.0 | 0.00 | 0.00 | 0.05 | 94 | 1006.7 |
| 20260831053013 | 15 | 229 | 0.0 | 0.0 | 0.00 | 0.00 | 0.05 | 93 | 1006.8 |
| 20260831051511 | 14 | 229 | 0.0 | 0.0 | 0.00 | 0.00 | 0.05 | 93 | 1007.0 |
| 20260831050127 | 14 | 229 | 0.0 | 0.0 | 0.00 | 0.00 | 0.05 | 93 | 1007.0 |
| 20260831044510 | 14 | 229 | 0.0 | 0.0 | 0.00 | 0.00 | 0.05 | 93 | 1007.1 |
| 20260831043011 | 14 | 229 | 0.0 | 0.0 | 0.00 | 0.00 | 0.03 | 93 | 1007.1 |
| 20260831041508 | 14 | 229 | 0.0 | 0.0 | 0.00 | 0.00 | 0.03 | 93 | 1007.1 |
| 20260831040010 | 14 | 229 | 0.0 | 0.0 | 0.00 | 0.00 | 0.03 | 92 | 1007.0 |
| 20260831034507 | 14 | 229 | 0.0 | 0.0 | 0.00 | 0.00 | 0.03 | 92 | 1007.1 |
| 20260831033006 | 15 | 229 | 0.0 | 0.0 | 0.00 | 0.00 | 0.03 | 92 | 1007.1 |